Home   Weather   Kotka   Past weeks

Flag for Finland Past Weather in Kotka, Finland — Yesterday and Last 2 Weeks

Now
27 °F

Passing clouds.


Feels Like: 18 °F
Forecast: 16 / 24 °F
Wind: 8 mph from North

Location: Utti

Current Time: Jan 24, 2017 at 11:05:44 am

Latest Report: Jan 24, 2017 at 10:20 am


Visibility: N/A

Pressure: 29.95 "Hg

Humidity: 80%

Dew Point: 21 °F

Location of KotkaLocation

Past Weather in Kotka — Graph

°F

Kotka Temperature Yesterday

Maximum temperature yesterday: 34 °F (at 7:20 pm)
Minimum temperature yesterday: 28 °F (at 8:20 am)
Average temperature yesterday: 31 °F

High & Low Weather Summary for the Past Weeks

 TemperatureHumidityPressure
High37 °F (Jan 19, 8:20 pm)100% (Jan 9, 6:20 pm)30.39 "Hg (Jan 9, 6:20 pm)
Low14 °F (Jan 16, 6:20 am)51% (Jan 20, 12:50 am)29.09 "Hg (Jan 13, 4:50 am)
Average28 °F91%29.83 "Hg
* Reported Jan 9 9:20 am — Jan 24 9:50 am, Kotka, Weather by CustomWeather, © 2017

Note: Actual official high and low records may vary slightly from our data, if they occured in-between our weather recording intervals... More about our weather records

Advertising

Kotka Weather History for the Previous 24 Hours

Scroll right to see more
 ConditionsComfort  
Time TempWeatherWind HumidityBarometerVisibility
9:50 am
Tue, Jan 24
27 °FScattered clouds.8 mph74%29.95 "HgN/A
9:20 am27 °FPartly sunny.8 mph80%29.92 "HgN/A
8:50 am27 °FLight snow. Passing clouds.9 mph80%29.89 "HgN/A
8:20 am27 °FSnow flurries. Passing clouds.13 mph86%29.89 "HgN/A
7:50 am28 °FSnow flurries. Passing clouds.9 mph86%29.86 "Hg5 mi
7:20 am30 °FLight snow. Passing clouds.15 mph75%29.83 "HgN/A
6:50 am30 °FLight snow. Passing clouds.12 mph80%29.80 "HgN/A
6:20 am32 °FLight snow. Partly cloudy.12 mph87%29.80 "HgN/A
5:50 am32 °FSnow flurries. Passing clouds.9 mph93%29.77 "Hg1 mi
5:20 am32 °FOvercast.10 mph93%29.77 "HgN/A
4:50 am32 °FPartly cloudy.8 mph93%29.74 "HgN/A
4:20 am32 °FPartly cloudy.8 mph100%29.74 "HgN/A
3:50 am34 °FPassing clouds.9 mph93%29.71 "HgN/A
3:20 am34 °FLow clouds.8 mph93%29.71 "HgN/A
2:50 am34 °FLow clouds.6 mph93%29.68 "HgN/A
2:20 am34 °FLow clouds.7 mph93%29.68 "HgN/A
1:50 am34 °FLight rain. Low clouds.8 mph93%29.68 "HgN/A
1:20 am34 °FLow clouds.6 mph93%29.65 "HgN/A
12:50 am34 °FLow clouds.7 mph93%29.65 "HgN/A
12:20 am34 °FLight rain. Low clouds.7 mph93%29.62 "HgN/A
11:50 pm
Mon, Jan 23
32 °FLight rain. Mostly cloudy.7 mph100%29.62 "Hg4 mi
11:20 pm32 °FSprinkles. Low clouds.7 mph100%29.62 "Hg5 mi
10:50 pm32 °FSprinkles. Low clouds.7 mph100%29.62 "HgN/A
10:20 pm32 °FLow clouds.7 mph100%29.62 "Hg6 mi
9:50 pm32 °FPassing clouds.6 mph100%29.59 "HgN/A
9:20 pm32 °FLight rain. Passing clouds.8 mph100%29.59 "Hg6 mi
8:50 pm32 °FLight rain. Mostly cloudy.8 mph100%29.59 "Hg2 mi
8:20 pm34 °FSnow flurries. Low clouds.8 mph93%29.59 "Hg4 mi
7:50 pm34 °FLow clouds.10 mph93%29.59 "HgN/A
7:20 pm34 °FLow clouds.10 mph93%29.59 "HgN/A
6:50 pm32 °FLow clouds.10 mph100%29.59 "HgN/A
6:20 pm32 °FLow clouds.10 mph100%29.59 "HgN/A
5:50 pm32 °FLow clouds.9 mph93%29.59 "HgN/A
5:20 pm32 °FLow clouds.10 mph93%29.59 "HgN/A
4:50 pm30 °FLow clouds.9 mph100%29.62 "HgN/A
4:20 pm30 °FLow clouds.10 mph100%29.59 "HgN/A
3:50 pm30 °FLow clouds.9 mph100%29.62 "HgN/A
3:20 pm30 °FLow clouds.9 mph93%29.62 "HgN/A
2:50 pm30 °FLight snow. Low clouds.9 mph93%29.62 "HgN/A
2:20 pm30 °FLight snow. Low clouds.8 mph93%29.65 "HgN/A
1:50 pm30 °FLow clouds.8 mph93%29.65 "HgN/A
1:20 pm30 °FLow clouds.9 mph93%29.65 "HgN/A
12:50 pm30 °FLow clouds.10 mph93%29.68 "HgN/A
12:20 pm30 °FLow clouds.9 mph93%29.68 "HgN/A
11:50 am28 °FLow clouds.9 mph100%29.68 "HgN/A
11:20 am30 °FIce fog.10 mph93%29.68 "Hg1 mi
Weather by CustomWeather, © 2017

See weather overviewHow to use our weather pages